Location: Cave
(41.8160°N, 12.9350°E)
Time: 00:40:36
(UTC+02:00)

ISS - Pass Details

Date: 07 July 2019
Orbit: 409 x 418 km, 51.6° (Epoch: 20 July)

Event Time Altitude Azimuth Distance (km) Brightness Sun altitude
Exits shadow 02:32:03 36° 65° (ENE) 673 -2.4 -23.0°
Drops below altitude 10° 02:34:09 10° 58° (ENE) 1,479 -0.3 -22.9°
Sets 02:36:15 0° 57° (ENE) 2,342 0.9 -22.7°
